Date String (YYYY-MM-DD hh:mm:ss) UTC,Instrument flags,Ambient pressure (hPa),Sample flow (lpm),Bypass flow (lpm),Sample temperature (°C),Ambient temperature (°C),ASC tube jacket temperature (°C),LED temperature (°C),Box temperature (°C),Sample RH (%),Span deviation,Mass concentration (μg/m³),Mass concentration (μg/m³),Mass concentration (μg/m³)
DateTimeUTC,F1_M11,P_M11,Q1_M11,Q2_M11,T1_M11,T2_M11,T3_M11,T4_M11,T5_M11,U1_M11,ZSPAN_M11,X0_M11,X2_M11,X1_M11
2022-12-08 01:00:00,,0825.5,5.00,0.00,25.5,23.8,00.0,34.5,27.2,09.8,0000.0,0014.13,0005.50,0004.73
2022-12-08 01:01:00,,0825.4,5.00,0.00,25.5,23.8,00.0,34.5,27.2,09.8,0000.0,0013.73,0005.49,0004.71
2022-12-08 01:02:00,,0825.5,4.99,0.00,25.4,23.8,00.0,34.5,27.2,09.8,0000.0,0013.43,0005.41,0004.66
2022-12-08 01:03:00,,0825.5,5.00,0.00,25.4,23.7,00.0,34.5,27.2,09.7,0000.0,0014.27,0005.40,0004.62
2022-12-08 01:04:00,,0825.5,5.00,0.00,25.4,23.7,00.0,34.5,27.2,09.7,0000.0,0014.16,0005.31,0004.57
2022-12-08 01:05:00,,0825.5,5.00,0.00,25.4,23.7,00.0,34.4,27.1,09.7,0000.0,0014.78,0005.25,0004.53
2022-12-08 01:06:00,,0825.6,5.00,0.00,25.4,23.7,00.0,34.4,27.1,09.8,0000.0,0015.79,0005.23,0004.49
2022-12-08 01:07:00,,0825.6,5.01,0.00,25.4,23.7,00.0,34.4,27.1,09.8,0000.0,0016.12,0005.23,0004.47
2022-12-08 01:08:00,,0825.6,5.01,0.00,25.3,23.7,00.0,34.4,27.0,09.8,0000.0,0016.33,0005.18,0004.43
2022-12-08 01:09:00,,0825.6,5.00,0.00,25.3,23.7,00.0,34.4,27.1,09.8,0000.0,0016.00,0005.14,0004.41
2022-12-08 01:10:00,,0825.6,5.00,0.00,25.3,23.7,00.0,34.4,27.1,09.8,0000.0,0016.05,0005.12,0004.39
2022-12-08 01:11:00,,0825.7,4.99,0.00,25.3,23.7,00.0,34.3,27.0,09.7,0000.0,0016.11,0005.12,0004.36
2022-12-08 01:12:00,,0825.7,5.00,0.00,25.3,23.7,00.0,34.3,27.0,09.8,0000.0,0015.95,0005.11,0004.33
2022-12-08 01:13:00,,0825.7,5.00,0.00,25.3,23.8,00.0,34.3,27.1,09.9,0000.0,0015.81,0005.14,0004.33
2022-12-08 01:14:00,,0825.8,5.00,0.00,25.3,23.8,00.0,34.3,27.1,09.8,0000.0,0014.77,0005.14,0004.32
2022-12-08 01:15:00,,0825.9,4.99,0.00,25.3,23.8,00.0,34.3,27.1,10.0,0000.0,0015.41,0005.14,0004.34
2022-12-08 01:16:00,,0825.9,5.00,0.00,25.3,23.9,00.0,34.3,27.2,10.1,0000.0,0014.90,0005.21,0004.38
2022-12-08 01:17:00,,0826.0,5.00,0.00,25.3,23.9,00.0,34.3,27.2,10.2,0000.0,0014.26,0005.36,0004.46
2022-12-08 01:18:00,,0825.8,5.01,0.00,25.4,23.9,00.0,34.3,27.2,10.2,0000.0,0013.43,0005.50,0004.53
2022-12-08 01:19:00,,0825.8,5.00,0.00,25.4,23.9,00.0,34.3,27.3,10.2,0000.0,0013.59,0005.62,0004.59
2022-12-08 01:20:00,,0825.8,4.99,0.00,25.4,23.9,00.0,34.3,27.3,10.1,0000.0,0013.77,0005.73,0004.65
2022-12-08 01:21:00,,0825.8,4.99,0.00,25.4,24.0,00.0,34.3,27.3,10.1,0000.0,0014.25,0005.81,0004.70
2022-12-08 01:22:00,,0825.9,5.00,0.00,25.4,24.0,00.0,34.3,27.3,10.1,0000.0,0015.91,0005.91,0004.75
2022-12-08 01:23:00,,0825.9,5.01,0.00,25.4,24.0,00.0,34.3,27.3,10.1,0000.0,0016.63,0006.02,0004.78
2022-12-08 01:24:00,,0825.9,5.00,0.00,25.4,24.0,00.0,34.3,27.3,10.1,0000.0,0016.90,0006.08,0004.82
2022-12-08 01:25:00,,0825.9,5.00,0.00,25.4,24.0,00.0,34.3,27.3,10.1,0000.0,0017.26,0006.16,0004.86
2022-12-08 01:26:00,,0826.0,5.00,0.00,25.4,24.0,00.0,34.3,27.2,10.1,0000.0,0017.00,0006.27,0004.90
2022-12-08 01:27:00,,0825.9,5.00,0.00,25.4,23.9,00.0,34.3,27.2,10.0,0000.0,0016.72,0006.27,0004.90
2022-12-08 01:28:00,,0825.9,5.00,0.00,25.4,23.9,00.0,34.3,27.2,10.0,0000.0,0016.76,0006.18,0004.86
2022-12-08 01:29:00,,0826.0,5.00,0.00,25.4,23.9,00.0,34.3,27.1,10.0,0000.0,0017.46,0006.12,0004.82
2022-12-08 01:30:00,,0826.0,4.99,0.00,25.4,23.9,00.0,34.3,27.1,10.0,0000.0,0017.12,0006.06,0004.77
2022-12-08 01:31:00,,0826.0,4.99,0.00,25.4,23.9,00.0,34.3,27.1,10.0,0000.0,0016.44,0006.05,0004.75
2022-12-08 01:32:00,,0826.0,5.00,0.00,25.4,23.9,00.0,34.3,27.1,10.0,0000.0,0015.88,0006.05,0004.72
2022-12-08 01:33:00,,0826.0,5.01,0.00,25.4,23.9,00.0,34.3,27.2,10.0,0000.0,0014.66,0006.04,0004.72
2022-12-08 01:34:00,,0826.0,5.01,0.00,25.4,23.8,00.0,34.3,27.1,10.0,0000.0,0014.04,0005.95,0004.71
2022-12-08 01:35:00,,0826.0,5.01,0.00,25.3,23.8,00.0,34.3,27.2,10.1,0000.0,0013.96,0005.94,0004.71
2022-12-08 01:36:00,,0826.0,4.99,0.00,25.3,23.8,00.0,34.2,27.1,10.1,0000.0,0013.71,0005.93,0004.71
2022-12-08 01:37:00,,0826.0,5.00,0.00,25.3,23.8,00.0,34.2,27.1,10.1,0000.0,0014.23,0005.91,0004.70
2022-12-08 01:38:00,,0826.0,4.99,0.00,25.3,23.8,00.0,34.2,27.2,10.1,0000.0,0015.08,0005.93,0004.69
2022-12-08 01:39:00,,0826.0,5.00,0.00,25.3,23.8,00.0,34.2,27.1,10.0,0000.0,0015.22,0005.91,0004.69
2022-12-08 01:40:00,,0826.0,5.00,0.00,25.3,23.9,00.0,34.2,27.2,10.0,0000.0,0014.79,0005.86,0004.68
2022-12-08 01:41:00,,0826.0,5.01,0.00,25.3,23.9,00.0,34.2,27.2,09.9,0000.0,0015.63,0005.85,0004.68
2022-12-08 01:42:00,,0826.0,5.00,0.00,25.3,23.9,00.0,34.2,27.2,10.0,0000.0,0015.50,0005.77,0004.67
2022-12-08 01:43:00,,0825.9,5.00,0.00,25.3,23.9,00.0,34.2,27.2,10.0,0000.0,0015.34,0005.71,0004.66
2022-12-08 01:44:00,,0825.9,5.01,0.00,25.3,23.9,00.0,34.2,27.2,09.9,0000.0,0015.02,0005.63,0004.64
2022-12-08 01:45:00,,0825.8,5.00,0.00,25.3,23.9,00.0,34.2,27.2,09.9,0000.0,0015.52,0005.60,0004.63
2022-12-08 01:46:00,,0825.7,5.00,0.00,25.4,23.9,00.0,34.2,27.2,09.8,0000.0,0017.09,0005.57,0004.61
2022-12-08 01:47:00,,0826.1,4.99,0.00,25.4,23.9,00.0,34.2,27.2,09.8,0000.0,0017.23,0005.48,0004.58
2022-12-08 01:48:00,,0825.8,5.00,0.00,25.4,23.9,00.0,34.2,27.2,09.8,0000.0,0016.06,0005.42,0004.57
2022-12-08 01:49:00,,0825.7,5.00,0.00,25.4,23.9,00.0,34.2,27.2,09.8,0000.0,0015.08,0005.34,0004.55
2022-12-08 01:50:00,,0825.7,5.00,0.00,25.4,23.9,00.0,34.2,27.3,09.8,0000.0,0015.10,0005.34,0004.52
2022-12-08 01:51:00,,0825.7,5.00,0.00,25.4,23.9,00.0,34.2,27.2,09.8,0000.0,0015.68,0005.37,0004.50
2022-12-08 01:52:00,,0825.6,5.00,0.00,25.4,23.9,00.0,34.2,27.2,09.8,0000.0,0015.06,0005.35,0004.49
2022-12-08 01:53:00,,0825.7,5.00,0.00,25.4,23.9,00.0,34.2,27.2,09.7,0000.0,0016.03,0005.34,0004.47
2022-12-08 01:54:00,,0825.6,5.00,0.00,25.4,23.9,00.0,34.2,27.2,09.8,0000.0,0016.11,0005.35,0004.46
2022-12-08 01:55:00,,0825.5,5.00,0.00,25.4,23.9,00.0,34.2,27.2,09.8,0000.0,0017.62,0005.35,0004.45
2022-12-08 01:56:00,,0825.6,5.00,0.00,25.4,23.9,00.0,34.2,27.2,09.8,0000.0,0017.99,0005.35,0004.43
2022-12-08 01:57:00,,0825.6,5.00,0.00,25.4,23.9,00.0,34.2,27.2,09.9,0000.0,0017.03,0005.36,0004.42
2022-12-08 01:58:00,,0825.6,5.00,0.00,25.3,23.9,00.0,34.2,27.1,09.9,0000.0,0017.08,0005.36,0004.43
2022-12-08 01:59:00,,0825.6,5.00,0.00,25.3,23.8,00.0,34.2,27.1,09.9,0000.0,0017.25,0005.43,0004.44
